Regional Weather Roundup
Issued by NWS

Home | Current Version | Previous Version | Text Only | Print | Product List | Glossary On
Versions: 1 2 3 4 5 6 7 8 9 10 11 12 13 14 15 16 17 18 19 20 21 22 23 24 25 26 27 28 29 30 31 32 33 34 35 36 37 38 39 40 41 42 43 44 45 46 47 48 49 50
000
ASUS44 KOUN 211100
RWROK

WEATHER ROUNDUP FOR OKLAHOMA
NATIONAL WEATHER SERVICE NORMAN OK
600 AM CDT MON MAY 21 2018

NOTE: "FAIR" INDICATES FEW OR NO CLOUDS BELOW 12,000 FEET WITH NO
      SIGNIFICANT WEATHER AND/OR OBSTRUCTIONS TO VISIBILITY.

OKZ001>007-009>012-014-015-017-211200-
NORTHWEST OKLAHOMA AND THE PANHANDLE

CITY           SKY/WX    TMP DP  RH WIND       PRES   REMARKS
GAGE           FOG       53  51  93 E5        30.07F VSB 1/4
GUYMON         CLOUDY    50  48  93 N7        30.08S
$$

OKZ016-021>023-033>039-044-045-211200-
SOUTHWEST OKLAHOMA

CITY           SKY/WX    TMP DP  RH WIND       PRES   REMARKS
LAWTON/REGL    CLEAR     60  59  96 CALM      30.06R
LAWTON/FT SILL CLEAR     59  59 100 N5        30.06R
FREDERICK      CLEAR     61  60  97 NE9       30.03R
CLINTON        CLEAR     58  56  93 NE5       30.09R
HOBART         CLEAR     59  57  93 E6        30.07S
ALTUS AFB      CLEAR     60  60 100 N7        30.06R
$$

OKZ018>020-024>031-211200-
CENTRAL OKLAHOMA

CITY           SKY/WX    TMP DP  RH WIND       PRES   REMARKS
OKLAHOMA CITY  PTCLDY    60  58  92 N5        30.07S
OKC/WILEY POST CLEAR     59  58  96 N6        30.07S FOG
OKC/TINKER AFB CLEAR     59  59 100 N5        30.07R
STILLWATER     FOG       54  52  93 W3        30.07S VSB 1/4
GUTHRIE        MOCLDY    59  58  96 N3        30.07S FOG
$$

OKZ008-013-054>072-211200-
NORTHEAST OKLAHOMA

CITY           SKY/WX    TMP DP  RH WIND       PRES   REMARKS
TULSA          CLEAR     62  59  90 CALM      30.04R
TULSA/JONES    PTCLDY    63  60  90 CALM      30.05S
PONCA CITY     CLEAR     56  53  90 NW3       30.07S FOG
BARTLESVILLE   CLEAR     56  54  93 CALM      30.06S FOG
MUSKOGEE       CLOUDY   N/A N/A N/A N9        30.06R
$$

OKZ032-040>043-046>053-073>077-211200-
SOUTH CENTRAL/SOUTHEAST OKLAHOMA

CITY           SKY/WX    TMP DP  RH WIND       PRES   REMARKS
MCALESTER      CLOUDY    67  66  97 N8        30.04R FOG
$$




USA.gov is the U.S. government's official web portal to all federal, state and local government web resources and services.